Location: Carri�res
(48.9069°N, 2.1792°E)
Time: 13:19:45
(UTC+00:00)

CZ-2C R/B - Pass Details

Date: 17 January 2021
Orbit: 785 x 870 km, 98.2° (Epoch: 26 February)

Event Time Altitude Azimuth Distance (km) Brightness Sun altitude
Exits shadow 18:43:08 35° 128° (SE) 1,350 3.4 -22.1°
Drops below altitude 10° 18:47:03 10° 166° (SSE) 2,498 5.1 -22.7°
Sets 18:49:35 0° 174° (S) 3,437 5.9 -23.1°
